FENGYUN 1C DEB, 30140

Orbit data source: Space-Track

FENGYUN 1C DEB, 30140 is space debris in SSO originally from a launch on Mon, 10 May 1999 UTC launched from the Taiyaun Space Center, China (TSC). Fengyun 1C debris stems from the Chinese weather satellite Fengyun-1C, which was intentionally destroyed by a Chinese anti-satellite missile in 2007. This event dramatically increased the amount of space debris, with thousands of trackable fragments posing hazards to satellites and human spaceflight. The Fengyun 1C debris cloud has become a focal point in discussions about space sustainability and the need for international regulations to prevent the creation of new debris.

Loading next visibility...
Identifier
30140, 1999-025SV
Orbit
SSO
Country
Flag of CNCN / PRC
Related business
Manufacturer
Unknown
Mission
Spacecraft
Bus & Motor
Unknown
Mass
Unknown
Launch date (UTC)
1999-05-10 (26 years ago)
Launch vehicle
Unknown
Launch site
Taiyaun Space Center, China (TSC)
Object type
Payload
Rocket body
Debris
Shape & HBR
Unknown shape, 0.1 m
Radar Cross Section
Small (<0.1 m²)

Expand to show TLE details & history
Last TLE update: 12 hours ago

TLE from 12 hours ago
0 FENGYUN 1C DEB
1 30140U 99025SV  25286.62980556  .00004355  00000-0  20377-2 0  9995
2 30140  98.8306 349.5975 0043966 124.0443  31.7984 14.20251827962902
Epoch: 2025-10-13T15:06Z
TLE epoch observation values (Epoch: 2025-10-13T15:06:55.200Z)
Latitude
23.61297°
Longitude
-75.68883°
Altitude
800.474 km
Speed
7.469 km/s
True Right ascension
11h 33m 53s
True Declination
23° 29' 16"
Sunlit
Object was in daylight at epoch
Visualization orbit readout
Latitude
Unknown
Longitude
Unknown
Altitude
Unknown
Speed
Unknown
Apparent Right ascension
Unknown
Apparent Declination
Unknown
Sunlit
N/A
Visualization observer readout
Local Sidereal Time
21:09:32
Azimuth
Unknown
Elevation
Unknown
Doppler factor
Unknown
Orbital elements
Apogee altitude
853.32 km
Perigee altitude
790.011 km
Semi-major axis
7,199.802 km
Eccentricity
0.0044
Inclination
98.8306°
RAAN
349.5975°
Arg. of periapsis
124.0443°
True anomaly
32.06512°
Mean anomaly
31.7984°
Eccentric anomaly
31.93164°
Mean motion
3.55273 °/min
Orbital period
101.33 mins
BSTAR
0.0020377
Loading maneuver chart data...
Computing Atmospheric mass density...

Documentation

Showing up to 5 results
|